Other Public Products
Issued by NWS Charleston, SC

Current Version | Previous Version | Graphics & Text | Print | Product List | Glossary On
Versions: 1 2 3 4 5 6 7 8 9 10 11 12 13 14 15 16 17 18 19 20 21 22 23 24 25 26 27 28 29 30 31 32 33 34 35 36 37 38 39 40 41 42 43 44 45 46 47 48 49 50
000 FPUS82 KCHS 270211 OPUCHS TEST...KCHS/KSAV Gateway Observations...TEST National Weather Service Charleston SC 900 PM EST SUN FEB 26 2017 NOTE: "fair" indicates few or no clouds below 12,000 feet with no significant weather and/or obstructions to visibility. SCZ050-WAZ558-NCZ071-TXZ119-213-PAZ071-DCZ001-FLZ074-172-MI076- NYZ176-178-MAZ016-IL014-TNZ027-NJZ106-GAZ044-MD014-270300- ...Gateway Observations for Charleston International... CITY SKY/WX TMP DP RH WIND PRES REMARKS Chas Airport CLEAR 51 38 60 CALM 30.28R Seattle CLOUDY 39 37 92 N10 29.72R WCI 32 Charlotte CLEAR 50 17 27 SE7 30.26R Dallas DFW CLOUDY 59 53 80 NE7 29.88R Dallas Love CLOUDY 62 52 69 E7 29.90R Philladelphia CLEAR 39 16 39 W7 30.27R WCI 34 Wash National PTCLDY 44 24 45 NE6 30.28R Baltimore CLEAR 32 22 66 CALM 30.27R Miami PTCLDY 76 66 71 NE12 30.15R Detroit MOCLDY 38 22 52 S17 30.04S WCI 28 Newark CLEAR 37 15 40 W10 30.23R WCI 30 Laguardia PTCLDY 40 17 39 W16G25 30.22R WCI 31 J F K CLEAR 39 18 42 W16G23 30.24R WCI 30 Boston Logan PTCLDY 34 15 46 W10 30.13R WCI 26 Ft. Lauderdale PTCLDY 75 65 70 NE15 30.14R Chicago O`Hare LGT RAIN 44 28 53 SW16G25 29.99R Chicago Midway CLOUDY 45 22 40 SW18 30.01R Houston Bush MOCLDY 68 61 78 SE13 29.94S Houston Hobby CLOUDY 69 62 78 SE8 29.94R Nashville MOCLDY 50 26 39 NE3 30.14S Atlanta PTCLDY 55 18 23 SE5 30.22R $$ GAZ044-118-TXZ119-213-NCZ071-DCZ001-MDZ014-506-PAZ021-071-NJZ106- NYZ176-178-MAZ106-OHZ011-021-055-MIZ076-KYZ091-ILZ014-INZ047- MNZ060-ONZ431-270300- ...Gateway Observations for Savannah International... CITY SKY/WX TMP DP RH WIND PRES REMARKS Savannah Arpt CLEAR 53 37 54 SE3 30.27R Atlanta PTCLDY 55 18 23 SE5 30.22R Charlotte CLEAR 50 17 27 SE7 30.26R Dallas DFW CLOUDY 59 53 80 NE7 29.88R Houston Bush MOCLDY 68 61 78 SE13 29.94S Wash National PTCLDY 44 24 45 NE6 30.28R Wash Dulles PTCLDY 33 20 58 CALM 30.27R Baltimore CLEAR 32 22 66 CALM 30.27R Philadelphia CLEAR 39 16 39 W7 30.27R WCI 34 Newark CLEAR 37 15 40 W10 30.23R WCI 30 Laguardia PTCLDY 40 17 39 W16G25 30.22R WCI 31 J F K CLEAR 39 18 42 W16G23 30.24R WCI 30 Boston PTCLDY 34 15 46 W10 30.13R WCI 26 Pittsburg PTCLDY 34 15 46 S6 30.18R WCI 29 Akron PTCLDY 35 17 47 SW16 30.13F WCI 25 Cleveland PTCLDY 38 19 46 S12G21 30.14R WCI 30 Cincinnati CLOUDY 40 21 46 S7 30.16S WCI 35 Columbus CLEAR 37 19 49 S7 30.18R WCI 31 Detroit MOCLDY 38 22 52 S17 30.04S WCI 28 Chicago O`Hare LGT RAIN 44 28 53 SW16G25 29.99R Minneapolis PTCLDY 30 11 45 W5 29.93R WCI 25 Indianapolis CLOUDY 40 17 39 S8 30.12S WCI 34 Toronto Canada CLOUDY 34 19 55 SW14 30.01R WCI 24 $$

USA.gov is the U.S. government's official web portal to all federal, state and local government web resources and services.